Time,TemperatureF,DewpointF,PressureIn,WindDirection,WindDirectionDegrees,WindSpeedMPH,WindSpeedGustMPH,Humidity,HourlyPrecipIn,Conditions,Clouds,dailyrainin,SolarRadiationWatts/m^2,SoftwareType,DateUTC
2013-03-04 00:01:00,21.0,19.0,-100.00,West,271,4.0,10.0,90,0.00,,,0.07,0.000000,,2013-03-04 05:01:00,
2013-03-04 00:11:00,21.0,19.0,-100.00,West,271,4.0,10.0,90,0.00,,,0.07,0.000000,,2013-03-04 05:11:00,
2013-03-04 00:22:00,21.0,19.0,-100.00,West,271,4.0,10.0,90,0.00,,,0.07,0.000000,,2013-03-04 05:22:00,
2013-03-04 00:52:00,21.0,19.0,-100.00,WNW,291,5.0,10.0,90,0.00,,,0.07,0.000000,,2013-03-04 05:52:00,
2013-03-04 01:02:00,21.0,19.0,-100.00,WNW,291,5.0,10.0,90,0.00,,,0.07,0.000000,,2013-03-04 06:02:00,
2013-03-04 01:11:00,21.0,19.0,-100.00,WNW,291,5.0,10.0,90,0.00,,,0.07,0.000000,,2013-03-04 06:11:00,
2013-03-04 01:22:00,21.0,19.0,-100.00,WNW,291,5.0,10.0,90,0.00,,,0.07,0.000000,,2013-03-04 06:22:00,
2013-03-04 01:52:00,21.0,18.0,-100.00,WNW,287,5.0,11.0,87,0.00,,,0.07,0.000000,,2013-03-04 06:52:00,
2013-03-04 02:02:00,21.0,18.0,-100.00,WNW,287,5.0,11.0,87,0.00,,,0.07,0.000000,,2013-03-04 07:02:00,
2013-03-04 02:11:00,21.0,18.0,-100.00,WNW,287,5.0,11.0,87,0.00,,,0.07,0.000000,,2013-03-04 07:11:00,
2013-03-04 02:22:00,21.0,18.0,-100.00,WNW,287,5.0,11.0,87,0.00,,,0.07,0.000000,,2013-03-04 07:22:00,
2013-03-04 02:52:00,20.0,16.0,-100.00,West,280,5.0,11.0,85,0.00,,,0.07,0.000000,,2013-03-04 07:52:00,
2013-03-04 03:02:00,20.0,16.0,-100.00,West,280,5.0,11.0,85,0.00,,,0.07,0.000000,,2013-03-04 08:02:00,
2013-03-04 03:12:00,20.0,16.0,-100.00,West,280,5.0,11.0,85,0.00,,,0.07,0.000000,,2013-03-04 08:12:00,
2013-03-04 03:22:00,20.0,16.0,-100.00,West,280,5.0,11.0,85,0.00,,,0.07,0.000000,,2013-03-04 08:22:00,
2013-03-04 03:52:00,20.0,16.0,-100.00,WNW,284,6.0,11.0,86,0.00,,,0.07,0.000000,,2013-03-04 08:52:00,
2013-03-04 04:02:00,20.0,16.0,-100.00,WNW,284,6.0,11.0,86,0.00,,,0.07,0.000000,,2013-03-04 09:02:00,
2013-03-04 04:11:00,20.0,16.0,-100.00,WNW,284,6.0,11.0,86,0.00,,,0.07,0.000000,,2013-03-04 09:11:00,
2013-03-04 04:22:00,20.0,16.0,-100.00,WNW,284,6.0,11.0,86,0.00,,,0.07,0.000000,,2013-03-04 09:22:00,
2013-03-04 04:52:00,20.0,16.0,-100.00,West,279,6.0,13.0,86,0.00,,,0.07,0.000000,,2013-03-04 09:52:00,
2013-03-04 05:01:00,20.0,16.0,-100.00,West,279,6.0,13.0,86,0.00,,,0.07,0.000000,,2013-03-04 10:01:00,
2013-03-04 05:12:00,20.0,16.0,-100.00,West,279,6.0,13.0,86,0.00,,,0.07,0.000000,,2013-03-04 10:12:00,
2013-03-04 05:22:00,20.0,16.0,-100.00,West,279,6.0,13.0,86,0.00,,,0.07,0.000000,,2013-03-04 10:22:00,
2013-03-04 05:52:00,20.0,16.0,-100.00,West,278,4.0,13.0,86,0.00,,,0.07,0.000000,,2013-03-04 10:52:00,
2013-03-04 06:02:00,20.0,16.0,-100.00,West,278,4.0,13.0,86,0.00,,,0.07,0.000000,,2013-03-04 11:02:00,
2013-03-04 06:11:00,20.0,16.0,-100.00,West,278,4.0,13.0,86,0.00,,,0.07,0.000000,,2013-03-04 11:11:00,
2013-03-04 06:22:00,20.0,16.0,-100.00,West,278,4.0,13.0,86,0.00,,,0.07,0.000000,,2013-03-04 11:22:00,
2013-03-04 06:52:00,20.0,16.0,-100.00,WNW,284,5.0,10.0,86,0.00,,,0.07,0.000000,,2013-03-04 11:52:00,
2013-03-04 07:02:00,20.0,16.0,-100.00,WNW,284,5.0,10.0,86,0.00,,,0.07,0.000000,,2013-03-04 12:02:00,
2013-03-04 07:12:00,20.0,16.0,-100.00,WNW,284,5.0,10.0,86,0.00,,,0.07,0.000000,,2013-03-04 12:12:00,
2013-03-04 07:22:00,20.0,16.0,-100.00,WNW,284,5.0,10.0,86,0.00,,,0.07,0.000000,,2013-03-04 12:22:00,
2013-03-04 07:53:00,20.0,16.0,-100.00,West,276,4.0,9.0,85,0.00,,,0.07,3.000000,,2013-03-04 12:53:00,
2013-03-04 08:02:00,20.0,16.0,-100.00,West,276,4.0,9.0,85,0.00,,,0.07,3.000000,,2013-03-04 13:02:00,
2013-03-04 08:11:00,20.0,16.0,-100.00,West,276,4.0,9.0,85,0.00,,,0.07,3.000000,,2013-03-04 13:11:00,
2013-03-04 08:21:00,20.0,16.0,-100.00,West,276,4.0,9.0,85,0.00,,,0.07,3.000000,,2013-03-04 13:21:00,
2013-03-04 08:52:00,20.0,16.0,-100.00,WNW,287,6.0,11.0,84,0.00,,,0.07,12.000000,,2013-03-04 13:52:00,
2013-03-04 09:01:00,20.0,16.0,-100.00,WNW,287,6.0,11.0,84,0.00,,,0.07,12.000000,,2013-03-04 14:01:00,
2013-03-04 09:12:00,20.0,16.0,-100.00,WNW,287,6.0,11.0,84,0.00,,,0.07,12.000000,,2013-03-04 14:12:00,
2013-03-04 09:22:00,20.0,16.0,-100.00,WNW,287,6.0,11.0,84,0.00,,,0.07,12.000000,,2013-03-04 14:22:00,
2013-03-04 09:52:00,21.0,16.0,-100.00,West,277,6.0,14.0,80,0.00,,,0.07,33.000000,,2013-03-04 14:52:00,
2013-03-04 10:02:00,21.0,16.0,-100.00,West,277,6.0,14.0,80,0.00,,,0.07,33.000000,,2013-03-04 15:02:00,
2013-03-04 10:11:00,21.0,16.0,-100.00,West,277,6.0,14.0,80,0.00,,,0.07,33.000000,,2013-03-04 15:11:00,
2013-03-04 10:22:00,21.0,16.0,-100.00,West,277,6.0,14.0,80,0.00,,,0.07,33.000000,,2013-03-04 15:22:00,
2013-03-04 10:52:00,23.0,15.0,-100.00,WNW,285,8.0,15.0,72,0.00,,,0.07,72.000000,,2013-03-04 15:52:00,
2013-03-04 11:03:00,23.0,15.0,-100.00,WNW,285,8.0,15.0,72,0.00,,,0.07,72.000000,,2013-03-04 16:03:00,
2013-03-04 11:11:00,23.0,15.0,-100.00,WNW,285,8.0,15.0,72,0.00,,,0.07,72.000000,,2013-03-04 16:11:00,
2013-03-04 11:21:00,23.0,15.0,-100.00,WNW,285,8.0,15.0,72,0.00,,,0.07,72.000000,,2013-03-04 16:21:00,
2013-03-04 11:52:00,23.0,15.0,-100.00,WNW,285,7.0,16.0,70,0.00,,,0.06,86.000000,,2013-03-04 16:52:00,
2013-03-04 12:02:00,23.0,15.0,-100.00,WNW,285,7.0,16.0,70,0.00,,,0.06,86.000000,,2013-03-04 17:02:00,
2013-03-04 12:11:00,23.0,15.0,-100.00,WNW,285,7.0,16.0,70,0.00,,,0.06,86.000000,,2013-03-04 17:11:00,
2013-03-04 12:22:00,23.0,15.0,-100.00,WNW,285,7.0,16.0,70,0.00,,,0.06,86.000000,,2013-03-04 17:22:00,
2013-03-04 12:52:00,23.0,15.0,-100.00,West,281,8.0,17.0,72,0.00,,,0.03,76.000000,,2013-03-04 17:52:00,
2013-03-04 13:02:00,23.0,15.0,-100.00,West,281,8.0,17.0,72,0.00,,,0.03,76.000000,,2013-03-04 18:02:00,
2013-03-04 13:11:00,23.0,15.0,-100.00,West,281,8.0,17.0,72,0.00,,,0.03,76.000000,,2013-03-04 18:11:00,
2013-03-04 13:22:00,23.0,15.0,-100.00,West,281,8.0,17.0,72,0.00,,,0.03,76.000000,,2013-03-04 18:22:00,
2013-03-04 13:52:00,22.0,13.0,-100.00,WNW,288,8.0,16.0,69,0.00,,,0.01,66.000000,,2013-03-04 18:52:00,
2013-03-04 14:02:00,22.0,13.0,-100.00,WNW,288,8.0,16.0,69,0.00,,,0.01,66.000000,,2013-03-04 19:02:00,
2013-03-04 14:12:00,22.0,13.0,-100.00,WNW,288,8.0,16.0,69,0.00,,,0.01,66.000000,,2013-03-04 19:12:00,
2013-03-04 14:22:00,22.0,13.0,-100.00,WNW,288,8.0,16.0,69,0.00,,,0.01,66.000000,,2013-03-04 19:22:00,
2013-03-04 14:52:00,23.0,17.0,-100.00,West,280,7.0,15.0,76,0.00,,,0.00,52.000000,,2013-03-04 19:52:00,
2013-03-04 15:02:00,23.0,17.0,-100.00,West,280,7.0,15.0,76,0.00,,,0.00,52.000000,,2013-03-04 20:02:00,
2013-03-04 15:12:00,23.0,17.0,-100.00,West,280,7.0,15.0,76,0.00,,,0.00,52.000000,,2013-03-04 20:12:00,
2013-03-04 15:22:00,23.0,17.0,-100.00,West,280,7.0,15.0,76,0.00,,,0.00,52.000000,,2013-03-04 20:22:00,
2013-03-04 15:53:00,21.0,15.0,-100.00,WNW,285,6.0,14.0,78,0.00,,,0.00,33.000000,,2013-03-04 20:53:00,
2013-03-04 16:02:00,21.0,15.0,-100.00,WNW,285,6.0,14.0,78,0.00,,,0.00,33.000000,,2013-03-04 21:02:00,
2013-03-04 16:12:00,21.0,15.0,-100.00,WNW,285,6.0,14.0,78,0.00,,,0.00,33.000000,,2013-03-04 21:12:00,
2013-03-04 16:22:00,21.0,15.0,-100.00,WNW,285,6.0,14.0,78,0.00,,,0.00,33.000000,,2013-03-04 21:22:00,
2013-03-04 16:53:00,21.0,16.0,-100.00,WNW,282,4.0,11.0,80,0.00,,,0.00,15.000000,,2013-03-04 21:53:00,
2013-03-04 17:02:00,21.0,16.0,-100.00,WNW,282,4.0,11.0,80,0.00,,,0.00,15.000000,,2013-03-04 22:02:00,
2013-03-04 17:12:00,21.0,16.0,-100.00,WNW,282,4.0,11.0,80,0.00,,,0.00,15.000000,,2013-03-04 22:12:00,
2013-03-04 17:22:00,21.0,16.0,-100.00,WNW,282,4.0,11.0,80,0.00,,,0.00,15.000000,,2013-03-04 22:22:00,
2013-03-04 17:52:00,19.0,16.0,-100.00,West,276,5.0,11.0,86,0.00,,,0.00,4.000000,,2013-03-04 22:52:00,
2013-03-04 18:02:00,19.0,16.0,-100.00,West,276,5.0,11.0,86,0.00,,,0.00,4.000000,,2013-03-04 23:02:00,
2013-03-04 18:11:00,19.0,16.0,-100.00,West,276,5.0,11.0,86,0.00,,,0.00,4.000000,,2013-03-04 23:11:00,
2013-03-04 18:22:00,19.0,16.0,-100.00,West,276,5.0,11.0,86,0.00,,,0.00,4.000000,,2013-03-04 23:22:00,
2013-03-04 18:52:00,19.0,16.0,-100.00,West,281,6.0,14.0,86,0.00,,,0.00,0.000000,,2013-03-04 23:52:00,
2013-03-04 19:02:00,19.0,16.0,-100.00,West,281,6.0,14.0,86,0.00,,,0.00,0.000000,,2013-03-05 00:02:00,
2013-03-04 19:12:00,19.0,16.0,-100.00,West,281,6.0,14.0,86,0.00,,,0.00,0.000000,,2013-03-05 00:12:00,
2013-03-04 19:22:00,19.0,16.0,-100.00,West,281,6.0,14.0,86,0.00,,,0.00,0.000000,,2013-03-05 00:22:00,
2013-03-04 19:52:00,19.0,16.0,-100.00,West,262,4.0,13.0,89,0.00,,,0.00,0.000000,,2013-03-05 00:52:00,
2013-03-04 20:02:00,19.0,16.0,-100.00,West,262,4.0,13.0,89,0.00,,,0.00,0.000000,,2013-03-05 01:02:00,
2013-03-04 20:12:00,19.0,16.0,-100.00,West,262,4.0,13.0,89,0.00,,,0.00,0.000000,,2013-03-05 01:12:00,
2013-03-04 20:22:00,19.0,16.0,-100.00,West,262,4.0,13.0,89,0.00,,,0.00,0.000000,,2013-03-05 01:22:00,
2013-03-04 20:52:00,19.0,16.0,-100.00,West,277,6.0,12.0,87,0.00,,,0.00,0.000000,,2013-03-05 01:52:00,
2013-03-04 21:02:00,19.0,16.0,-100.00,West,277,6.0,12.0,87,0.00,,,0.00,0.000000,,2013-03-05 02:02:00,
2013-03-04 21:12:00,19.0,16.0,-100.00,West,277,6.0,12.0,87,0.00,,,0.00,0.000000,,2013-03-05 02:12:00,
2013-03-04 21:22:00,19.0,16.0,-100.00,West,277,6.0,12.0,87,0.00,,,0.00,0.000000,,2013-03-05 02:22:00,
2013-03-04 21:53:00,19.0,16.0,-100.00,West,272,4.0,11.0,87,0.00,,,0.00,0.000000,,2013-03-05 02:53:00,
2013-03-04 22:02:00,19.0,16.0,-100.00,West,272,4.0,11.0,87,0.00,,,0.00,0.000000,,2013-03-05 03:02:00,
2013-03-04 22:12:00,19.0,16.0,-100.00,West,272,4.0,11.0,87,0.00,,,0.00,0.000000,,2013-03-05 03:12:00,
2013-03-04 22:22:00,19.0,16.0,-100.00,West,272,4.0,11.0,87,0.00,,,0.00,0.000000,,2013-03-05 03:22:00,
2013-03-04 22:52:00,20.0,17.0,-100.00,West,269,3.0,7.0,87,0.00,,,0.00,0.000000,,2013-03-05 03:52:00,
2013-03-04 23:02:00,20.0,17.0,-100.00,West,269,3.0,7.0,87,0.00,,,0.00,0.000000,,2013-03-05 04:02:00,
2013-03-04 23:12:00,20.0,17.0,-100.00,West,269,3.0,7.0,87,0.00,,,0.00,0.000000,,2013-03-05 04:12:00,
2013-03-04 23:22:00,20.0,17.0,-100.00,West,269,3.0,7.0,87,0.00,,,0.00,0.000000,,2013-03-05 04:22:00,
2013-03-04 23:52:00,20.0,17.0,-100.00,West,274,3.0,7.0,88,0.00,,,0.00,0.000000,,2013-03-05 04:52:00,